Time,TemperatureF,DewpointF,PressureIn,WindDirection,WindDirectionDegrees,WindSpeedMPH,WindSpeedGustMPH,Humidity,HourlyPrecipIn,Conditions,Clouds,dailyrainin,SoftwareType,DateUTC
2013-09-22 00:05:00,57.6,57.3,29.68,West,270,1.1,-999.0,99,-99.99,,,0.00,Acu-Link.com,2013-09-22 04:05:00,
2013-09-22 00:20:00,57.4,57.1,29.68,West,270,1.1,-999.0,99,-99.99,,,0.00,Acu-Link.com,2013-09-22 04:20:00,
2013-09-22 00:35:00,57.2,56.9,29.68,West,270,4.2,-999.0,99,-99.99,,,0.00,Acu-Link.com,2013-09-22 04:35:00,
2013-09-22 00:50:00,57.2,56.9,29.69,West,270,2.7,-999.0,99,-99.99,,,0.00,Acu-Link.com,2013-09-22 04:50:00,
2013-09-22 01:06:00,57.0,56.7,29.69,West,270,4.2,-999.0,99,-99.99,,,0.00,Acu-Link.com,2013-09-22 05:06:00,
2013-09-22 01:21:00,56.7,56.4,29.69,West,270,2.2,-999.0,99,-99.99,,,0.00,Acu-Link.com,2013-09-22 05:21:00,
2013-09-22 01:36:00,56.3,56.0,29.70,West,270,1.7,-999.0,99,-99.99,,,0.00,Acu-Link.com,2013-09-22 05:36:00,
2013-09-22 01:51:00,55.9,55.6,29.70,West,270,1.7,-999.0,99,-99.99,,,0.00,Acu-Link.com,2013-09-22 05:51:00,
2013-09-22 02:06:00,55.4,55.1,29.69,ESE,112,0.0,-999.0,99,-99.99,,,0.00,Acu-Link.com,2013-09-22 06:06:00,
2013-09-22 02:22:00,54.9,54.6,29.70,West,270,0.0,-999.0,99,-99.99,,,0.00,Acu-Link.com,2013-09-22 06:22:00,
2013-09-22 02:37:00,55.2,54.9,29.70,SW,225,1.7,-999.0,99,-99.99,,,0.00,Acu-Link.com,2013-09-22 06:37:00,
2013-09-22 02:52:00,54.9,54.6,29.70,WSW,247,2.2,-999.0,99,-99.99,,,0.00,Acu-Link.com,2013-09-22 06:52:00,
2013-09-22 03:07:00,54.3,54.0,29.70,West,270,2.2,-999.0,99,-99.99,,,0.00,Acu-Link.com,2013-09-22 07:07:00,
2013-09-22 03:22:00,54.3,54.0,29.70,West,270,1.1,-999.0,99,-99.99,,,0.00,Acu-Link.com,2013-09-22 07:22:00,
2013-09-22 03:38:00,54.5,54.2,29.70,WSW,247,2.2,-999.0,99,-99.99,,,0.00,Acu-Link.com,2013-09-22 07:38:00,
2013-09-22 03:53:00,54.7,54.4,29.70,West,270,1.7,-999.0,99,-99.99,,,0.00,Acu-Link.com,2013-09-22 07:53:00,
2013-09-22 04:11:00,54.7,54.4,29.70,WSW,247,1.7,-999.0,99,-99.99,,,0.00,Acu-Link.com,2013-09-22 08:11:00,
2013-09-22 04:27:00,54.9,54.6,29.71,WSW,247,2.7,-999.0,99,-99.99,,,0.00,Acu-Link.com,2013-09-22 08:27:00,
2013-09-22 04:43:00,54.9,54.6,29.71,West,270,4.2,-999.0,99,-99.99,,,0.00,Acu-Link.com,2013-09-22 08:43:00,
2013-09-22 04:58:00,54.9,54.6,29.72,WSW,247,2.2,-999.0,99,-99.99,,,0.00,Acu-Link.com,2013-09-22 08:58:00,
2013-09-22 05:13:00,54.9,54.6,29.72,WSW,247,1.7,-999.0,99,-99.99,,,0.00,Acu-Link.com,2013-09-22 09:13:00,
2013-09-22 05:28:00,54.9,54.6,29.72,SW,225,0.0,-999.0,99,-99.99,,,0.00,Acu-Link.com,2013-09-22 09:28:00,
2013-09-22 05:43:00,54.9,54.6,29.72,West,270,0.0,-999.0,99,-99.99,,,0.00,Acu-Link.com,2013-09-22 09:43:00,
2013-09-22 05:58:00,54.9,54.6,29.73,West,270,4.7,-999.0,99,-99.99,,,0.00,Acu-Link.com,2013-09-22 09:58:00,
2013-09-22 06:14:00,54.5,54.2,29.73,West,270,1.7,-999.0,99,-99.99,,,0.00,Acu-Link.com,2013-09-22 10:14:00,
2013-09-22 06:29:00,54.3,54.0,29.73,West,270,0.0,-999.0,99,-99.99,,,0.00,Acu-Link.com,2013-09-22 10:29:00,
2013-09-22 06:44:00,54.3,54.0,29.74,West,270,3.2,-999.0,99,-99.99,,,0.00,Acu-Link.com,2013-09-22 10:44:00,
2013-09-22 07:00:00,54.1,53.8,29.74,WSW,247,2.2,-999.0,99,-99.99,,,0.00,Acu-Link.com,2013-09-22 11:00:00,
2013-09-22 07:15:00,54.1,53.8,29.74,West,270,2.2,-999.0,99,-99.99,,,0.00,Acu-Link.com,2013-09-22 11:15:00,
2013-09-22 07:30:00,54.1,53.8,29.75,West,270,2.7,-999.0,99,-99.99,,,0.02,Acu-Link.com,2013-09-22 11:30:00,
2013-09-22 07:45:00,54.3,54.0,29.75,West,270,3.7,-999.0,99,-99.99,,,0.02,Acu-Link.com,2013-09-22 11:45:00,
2013-09-22 08:00:00,54.5,54.2,29.76,West,270,5.3,-999.0,99,-99.99,,,0.02,Acu-Link.com,2013-09-22 12:00:00,
2013-09-22 08:15:00,54.5,54.2,29.77,WNW,292,2.2,-999.0,99,-99.99,,,0.02,Acu-Link.com,2013-09-22 12:15:00,
2013-09-22 08:31:00,54.7,54.4,29.77,West,270,3.7,-999.0,99,-99.99,,,0.02,Acu-Link.com,2013-09-22 12:31:00,
2013-09-22 08:46:00,55.0,54.7,29.77,WNW,292,2.7,-999.0,99,-99.99,,,0.03,Acu-Link.com,2013-09-22 12:46:00,
2013-09-22 09:01:00,54.9,54.6,29.78,West,270,5.3,-999.0,99,-99.99,,,0.03,Acu-Link.com,2013-09-22 13:01:00,
2013-09-22 09:16:00,55.4,55.1,29.78,West,270,2.7,-999.0,99,-99.99,,,0.03,Acu-Link.com,2013-09-22 13:16:00,
2013-09-22 09:31:00,55.8,55.5,29.78,West,270,3.7,-999.0,99,-99.99,,,0.03,Acu-Link.com,2013-09-22 13:31:00,
2013-09-22 09:47:00,56.5,56.2,29.79,West,270,5.3,-999.0,99,-99.99,,,0.03,Acu-Link.com,2013-09-22 13:47:00,
2013-09-22 10:02:00,58.1,57.5,29.79,West,270,5.3,-999.0,98,-99.99,,,0.03,Acu-Link.com,2013-09-22 14:02:00,
2013-09-22 10:17:00,56.7,56.4,29.80,West,270,4.7,-999.0,99,-99.99,,,0.03,Acu-Link.com,2013-09-22 14:17:00,
2013-09-22 10:32:00,56.8,56.0,29.80,SW,225,8.3,-999.0,97,-99.99,,,0.03,Acu-Link.com,2013-09-22 14:32:00,
2013-09-22 10:47:00,58.8,57.1,29.80,West,270,7.8,-999.0,94,-99.99,,,0.03,Acu-Link.com,2013-09-22 14:47:00,
2013-09-22 11:02:00,57.2,55.5,29.80,WNW,292,5.8,-999.0,94,-99.99,,,0.03,Acu-Link.com,2013-09-22 15:02:00,
2013-09-22 11:17:00,57.7,55.1,29.80,West,270,6.3,-999.0,91,-99.99,,,0.03,Acu-Link.com,2013-09-22 15:17:00,
2013-09-22 11:32:00,57.6,55.0,29.80,West,270,9.9,-999.0,91,-99.99,,,0.03,Acu-Link.com,2013-09-22 15:32:00,
2013-09-22 11:47:00,56.8,53.0,29.81,West,270,8.9,-999.0,87,-99.99,,,0.03,Acu-Link.com,2013-09-22 15:47:00,
2013-09-22 12:03:00,59.7,54.9,29.81,West,270,7.8,-999.0,84,-99.99,,,0.03,Acu-Link.com,2013-09-22 16:03:00,
2013-09-22 12:18:00,59.9,52.7,29.81,West,270,9.9,-999.0,77,-99.99,,,0.03,Acu-Link.com,2013-09-22 16:18:00,
2013-09-22 12:33:00,59.9,52.7,29.81,WNW,292,5.3,-999.0,77,-99.99,,,0.03,Acu-Link.com,2013-09-22 16:33:00,
2013-09-22 12:48:00,60.3,52.0,29.81,WNW,292,4.7,-999.0,74,-99.99,,,0.03,Acu-Link.com,2013-09-22 16:48:00,
2013-09-22 13:03:00,59.7,51.0,29.82,West,270,4.7,-999.0,73,-99.99,,,0.03,Acu-Link.com,2013-09-22 17:03:00,
2013-09-22 13:19:00,60.4,51.0,29.82,West,270,5.8,-999.0,71,-99.99,,,0.03,Acu-Link.com,2013-09-22 17:19:00,
2013-09-22 13:34:00,59.4,49.6,29.82,West,270,1.7,-999.0,70,-99.99,,,0.03,Acu-Link.com,2013-09-22 17:34:00,
2013-09-22 13:49:00,60.1,49.1,29.82,West,270,10.4,-999.0,67,-99.99,,,0.03,Acu-Link.com,2013-09-22 17:49:00,
2013-09-22 14:04:00,59.4,48.8,29.81,West,270,5.8,-999.0,68,-99.99,,,0.03,Acu-Link.com,2013-09-22 18:04:00,
2013-09-22 14:19:00,61.9,48.7,29.81,West,270,7.8,-999.0,62,-99.99,,,0.03,Acu-Link.com,2013-09-22 18:19:00,
2013-09-22 14:34:00,63.5,48.9,29.80,WSW,247,2.2,-999.0,59,-99.99,,,0.03,Acu-Link.com,2013-09-22 18:34:00,
2013-09-22 14:49:00,63.1,48.5,29.81,West,270,9.9,-999.0,59,-99.99,,,0.03,Acu-Link.com,2013-09-22 18:49:00,
2013-09-22 15:04:00,61.0,48.7,29.81,West,270,2.7,-999.0,64,-99.99,,,0.03,Acu-Link.com,2013-09-22 19:04:00,
2013-09-22 15:20:00,60.1,47.5,29.81,West,270,6.8,-999.0,63,-99.99,,,0.03,Acu-Link.com,2013-09-22 19:20:00,
2013-09-22 15:35:00,59.9,49.3,29.82,West,270,3.7,-999.0,68,-99.99,,,0.03,Acu-Link.com,2013-09-22 19:35:00,
2013-09-22 15:50:00,59.9,48.9,29.81,WNW,292,4.7,-999.0,67,-99.99,,,0.03,Acu-Link.com,2013-09-22 19:50:00,
2013-09-22 16:05:00,59.9,49.7,29.82,WNW,292,8.9,-999.0,69,-99.99,,,0.03,Acu-Link.com,2013-09-22 20:05:00,
2013-09-22 16:20:00,59.5,48.5,29.82,WNW,292,5.3,-999.0,67,-99.99,,,0.03,Acu-Link.com,2013-09-22 20:20:00,
2013-09-22 16:35:00,59.5,49.3,29.82,West,270,4.7,-999.0,69,-99.99,,,0.03,Acu-Link.com,2013-09-22 20:35:00,
2013-09-22 16:50:00,59.5,49.7,29.82,SW,225,5.3,-999.0,70,-99.99,,,0.03,Acu-Link.com,2013-09-22 20:50:00,
2013-09-22 17:06:00,58.1,49.9,29.82,West,270,3.2,-999.0,74,-99.99,,,0.03,Acu-Link.com,2013-09-22 21:06:00,
2013-09-22 17:21:00,58.3,50.4,29.83,West,270,2.7,-999.0,75,-99.99,,,0.03,Acu-Link.com,2013-09-22 21:21:00,
2013-09-22 17:36:00,58.6,50.7,29.83,West,270,2.2,-999.0,75,-99.99,,,0.03,Acu-Link.com,2013-09-22 21:36:00,
2013-09-22 17:51:00,59.0,50.7,29.83,NNE,22,2.7,-999.0,74,-99.99,,,0.03,Acu-Link.com,2013-09-22 21:51:00,
2013-09-22 18:06:00,58.5,50.2,29.83,NNW,337,4.2,-999.0,74,-99.99,,,0.03,Acu-Link.com,2013-09-22 22:06:00,
2013-09-22 18:22:00,58.1,49.9,29.83,West,270,2.7,-999.0,74,-99.99,,,0.03,Acu-Link.com,2013-09-22 22:22:00,
2013-09-22 18:37:00,57.6,49.7,29.84,West,270,1.7,-999.0,75,-99.99,,,0.03,Acu-Link.com,2013-09-22 22:37:00,
2013-09-22 18:52:00,57.4,49.5,29.84,ESE,112,4.2,-999.0,75,-99.99,,,0.03,Acu-Link.com,2013-09-22 22:52:00,
2013-09-22 19:08:00,57.2,49.7,29.85,NW,315,3.7,-999.0,76,-99.99,,,0.03,Acu-Link.com,2013-09-22 23:08:00,
2013-09-22 19:23:00,57.0,49.9,29.85,NW,315,2.2,-999.0,77,-99.99,,,0.03,Acu-Link.com,2013-09-22 23:23:00,
2013-09-22 19:38:00,56.7,49.9,29.86,West,270,2.2,-999.0,78,-99.99,,,0.03,Acu-Link.com,2013-09-22 23:38:00,
2013-09-22 19:54:00,56.3,49.9,29.86,North,0,2.2,-999.0,79,-99.99,,,0.03,Acu-Link.com,2013-09-22 23:54:00,
2013-09-22 20:09:00,56.1,49.0,29.86,WSW,247,2.2,-999.0,77,-99.99,,,0.03,Acu-Link.com,2013-09-23 00:09:00,
2013-09-22 20:24:00,55.9,48.8,29.87,SE,135,3.7,-999.0,77,-99.99,,,0.03,Acu-Link.com,2013-09-23 00:24:00,
2013-09-22 20:39:00,55.6,49.5,29.88,NNE,22,2.7,-999.0,80,-99.99,,,0.03,Acu-Link.com,2013-09-23 00:39:00,
2013-09-22 20:54:00,55.2,49.5,29.88,NW,315,3.7,-999.0,81,-99.99,,,0.03,Acu-Link.com,2013-09-23 00:54:00,
2013-09-22 21:09:00,55.0,49.3,29.88,NNE,22,3.7,-999.0,81,-99.99,,,0.03,Acu-Link.com,2013-09-23 01:09:00,
2013-09-22 21:24:00,54.3,49.2,29.89,NNE,22,4.7,-999.0,83,-99.99,,,0.03,Acu-Link.com,2013-09-23 01:24:00,
2013-09-22 21:39:00,54.3,49.6,29.89,ENE,67,3.2,-999.0,84,-99.99,,,0.03,Acu-Link.com,2013-09-23 01:39:00,
2013-09-22 21:54:00,53.8,49.1,29.89,ESE,112,4.7,-999.0,84,-99.99,,,0.03,Acu-Link.com,2013-09-23 01:54:00,
2013-09-22 22:10:00,53.4,48.7,29.89,North,0,3.2,-999.0,84,-99.99,,,0.03,Acu-Link.com,2013-09-23 02:10:00,
2013-09-22 22:25:00,53.2,48.8,29.90,West,270,2.2,-999.0,85,-99.99,,,0.03,Acu-Link.com,2013-09-23 02:25:00,
2013-09-22 22:40:00,53.1,49.0,29.90,SSE,157,2.2,-999.0,86,-99.99,,,0.03,Acu-Link.com,2013-09-23 02:40:00,
2013-09-22 22:56:00,52.7,48.6,29.90,NE,45,2.7,-999.0,86,-99.99,,,0.03,Acu-Link.com,2013-09-23 02:56:00,
2013-09-22 23:11:00,52.7,48.6,29.90,NNW,337,1.7,-999.0,86,-99.99,,,0.03,Acu-Link.com,2013-09-23 03:11:00,
2013-09-22 23:26:00,52.5,48.7,29.90,WNW,292,0.0,-999.0,87,-99.99,,,0.03,Acu-Link.com,2013-09-23 03:26:00,
2013-09-22 23:42:00,52.3,48.9,29.91,SSW,202,2.2,-999.0,88,-99.99,,,0.03,Acu-Link.com,2013-09-23 03:42:00,
2013-09-22 23:57:00,52.3,49.2,29.90,SSW,202,0.0,-999.0,89,-99.99,,,0.03,Acu-Link.com,2013-09-23 03:57:00,